Change the Weather History Date:

Monday, February 20, 2012

  Actual Average Record
Temperature  
Mean Temperature 26 °F 22 °F  
Max Temperature 33 °F 33 °F 58 °F (1994)
Min Temperature 19 °F 12 °F -16 °F (1966)
Degree Days  
Heating Degree Days 39 43  
Month to date heating degree days 793 906  
Since 1 July heating degree days 4502 5313  
Cooling Degree Days 0 0  
Month to date cooling degree days 0 0  
Year to date cooling degree days 0 0  
Moisture  
Dew Point 8 °F    
Average Humidity 51    
Maximum Humidity 68    
Minimum Humidity 33    
Precipitation  
Precipitation 0.00 in 0.08 in 1.34 in (1963)
Month to date precipitation 0.23 1.76  
Year to date precipitation 2.18 4.65  
Snow  
Snow 0.00 in 0.50 in 16.10 in (1947)
Month to date snowfall 0.4 10.8  
Since 1 July snowfall 34.7 46.8  
Snow Depth 0.00 in    
Sea Level Pressure  
Sea Level Pressure 30.08 in    
Wind  
Wind Speed 11 mph (NW)    
Max Wind Speed 24 mph    
Max Gust Speed 29 mph    
Visibility 10 miles    
Events      
T = Trace of Precipitation, MM = Missing Value Source: NWS Daily Summary

Daily Weather History Graph

Daily Weather History Graph

Search for Another Location

Airport or City:

Trip Planner

Search our weather history database for the weather conditions in past years. The results will help you decide how hot, cold, wet, or windy it might be!

Date:

Astronomy

Feb. 20, 2012 Rise Set
Actual Time 6:28 AM EST 5:09 PM EST
Civil Twilight 5:59 AM EST 5:39 PM EST
Nautical Twilight 5:25 AM EST 6:13 PM EST
Astronomical Twilight 4:51 AM EST 6:47 PM EST
Moon 5:25 AM EST (2/20) 4:10 PM EST (2/20)
Length of Visible Light 11h 40m
Length of Day
10h 41m
Waning Crescent, 2% of the Moon is Illuminated
Feb 20
Waning Crescent
Feb 21
New
Feb 29
First Quarter
Mar 8
Full
Mar 14
Last Quarter

Hourly Weather History & Observations

Time (EST) Temp. Windchill Dew Point Humidity Pressure Visibility Wind Dir Wind Speed Gust Speed Precip Events Conditions
12:53 AM 23.0 °F 13.9 °F 12.0 °F 63% 30.01 in 10.0 mi NW 8.1 mph - N/A   Clear
1:53 AM 21.0 °F 9.9 °F 10.9 °F 65% 30.01 in 10.0 mi NW 10.4 mph - N/A   Clear
2:53 AM 19.9 °F 10.1 °F 10.9 °F 68% 30.00 in 10.0 mi NW 8.1 mph - N/A   Clear
3:53 AM 19.9 °F 10.1 °F 10.0 °F 65% 30.00 in 10.0 mi NW 8.1 mph - N/A   Clear
4:53 AM 19.9 °F 8.6 °F 9.0 °F 62% 30.01 in 10.0 mi NW 10.4 mph - N/A   Clear
5:53 AM 19.9 °F 5.7 °F 8.1 °F 60% 30.02 in 10.0 mi NW 16.1 mph 20.7 mph N/A   Clear
6:53 AM 19.0 °F 6.8 °F 9.0 °F 65% 30.02 in 10.0 mi NNW 11.5 mph - N/A   Partly Cloudy
7:53 AM 21.0 °F 9.3 °F 8.1 °F 57% 30.03 in 10.0 mi NNW 11.5 mph - N/A   Clear
8:53 AM 21.9 °F 8.2 °F 7.0 °F 53% 30.05 in 10.0 mi NW 16.1 mph - N/A   Clear
9:53 AM 24.1 °F 13.7 °F 7.0 °F 48% 30.07 in 10.0 mi NW 10.4 mph 19.6 mph N/A   Clear
10:53 AM 25.0 °F 13.6 °F 7.0 °F 46% 30.07 in 10.0 mi NW 12.7 mph - N/A   Clear
11:53 AM 27.0 °F 15.6 °F 8.1 °F 45% 30.06 in 10.0 mi NW 13.8 mph 20.7 mph N/A   Clear
12:53 PM 28.0 °F 17.0 °F 6.1 °F 39% 30.05 in 10.0 mi NW 13.8 mph 23.0 mph N/A   Clear
1:53 PM 30.9 °F 21.2 °F 6.1 °F 35% 30.04 in 10.0 mi NW 12.7 mph - N/A   Clear
2:53 PM 32.0 °F 21.2 °F 6.1 °F 34% 30.05 in 10.0 mi NNW 16.1 mph 27.6 mph N/A   Clear
3:53 PM 32.0 °F 20.1 °F 7.0 °F 35% 30.06 in 10.0 mi NW 19.6 mph - N/A   Clear
4:53 PM 30.0 °F 18.7 °F 6.1 °F 36% 30.09 in 10.0 mi NW 16.1 mph 25.3 mph N/A   Clear
5:53 PM 28.9 °F 18.6 °F 7.0 °F 40% 30.12 in 10.0 mi NW 12.7 mph 20.7 mph N/A   Clear
6:53 PM 27.0 °F 15.6 °F 9.0 °F 47% 30.14 in 10.0 mi NW 13.8 mph - N/A   Clear
7:53 PM 26.1 °F 14.0 °F 9.0 °F 49% 30.16 in 10.0 mi NW 15.0 mph 25.3 mph N/A   Clear
8:53 PM 25.0 °F 13.6 °F 9.0 °F 51% 30.19 in 10.0 mi NW 12.7 mph - N/A   Clear
9:53 PM 24.1 °F 13.1 °F 10.0 °F 55% 30.21 in 10.0 mi NW 11.5 mph - N/A   Clear
10:53 PM 21.9 °F 12.5 °F 10.0 °F 60% 30.22 in 10.0 mi NW 8.1 mph - N/A   Clear
11:53 PM 21.0 °F 12.4 °F 9.0 °F 60% 30.25 in 10.0 mi WNW 6.9 mph - N/A   Clear